Regional Weather Roundup
Issued by NWS Sterling, VA

Home | Current Version | Previous Version | Text Only | Print | Product List | Glossary On
Versions: 1 2 3 4 5 6 7 8 9 10 11 12 13 14 15 16 17 18 19 20 21 22 23 24 25 26 27
000
ASUS41 KLWX 041011
RWRLWX

REGIONAL WEATHER ROUNDUP
NATIONAL WEATHER SERVICE BALTIMORE MD/WASHINGTON DC
600 AM EDT WED MAY 04 2016

Note: "FAIR" indicates few or no clouds below 12,000 feet
with no significant weather and/or obstructions to visibility.
 TC=TEMPERATURE CELSIUS

 * =Non NWS site. Station does not report precipitation (e.g. rain,
    snow, etc.), thunder, or fog.

DCZ001-MDZ009-015-VAZ040>042-051-053>054-041100-
WASHINGTON METRO

CITY           SKY/WX    TMP DP  RH WIND       PRES   REMARKS
WASHINGTON NAT CLOUDY    55  53  93 NE7       29.74F
DULLES         CLOUDY    55  53  93 E6        29.73F
ANDREWS AFB    CLOUDY    54  52  94 NE8       29.72S
FT BELVOIR     CLOUDY    55  54  94 VRB1      29.73S
QUANTICO       CLOUDY    58  55  90 NE5       29.73F
COLLEGE PARK*  CLOUDY    52  50  93 CALM      29.74S
LEESBURG*      CLOUDY    55  55 100 E6        29.74F FOG
MANASSAS*      CLOUDY    55  55 100 NE5       29.72F
GAITHERSBURG*  CLOUDY    52  48  87 CALM      29.78S

$$

MDZ006>007-011-014-041100-
BALTIMORE METRO

CITY           SKY/WX    TMP DP  RH WIND       PRES   REMARKS
BWI AIRPORT    CLOUDY    53  50  89 NE7       29.73F
MD SCIENCE CTR   N/A     53  50  89 MISG      29.75F
MARTIN STATE   CLOUDY    54  54 100 CALM      29.77S
ANNAPOLIS      CLOUDY    53  50  89 NE5       29.74F
FORT MEADE*    CLOUDY    52  50  93 NE3       29.76F

$$

MDZ012-015-019>023-041100-
MARYLAND EASTERN SHORE

CITY           SKY/WX    TMP DP  RH WIND       PRES   REMARKS
OCEAN CITY     CLOUDY    51  50  96 NE9       29.74R FOG
SALISBURY      LGT RAIN  50  50 100 NE9       29.74R FOG
CAMBRIDGE*     CLOUDY    50  50 100 NE3       29.72S
EASTON*        CLOUDY   N/A N/A N/A E7        29.77S

$$

MDZ017>025-041100-
SOUTHERN MARYLAND

CITY           SKY/WX    TMP DP  RH WIND       PRES   REMARKS
PATUXENT RIVER CLOUDY    53  50  89 NE7       29.73R
ST INIGOES     CLOUDY    54  52  93 N3        29.73R
LEONARDTOWN*   CLOUDY    52  50  93 CALM      29.74R

$$

MDZ003>005-041100-
NORTH CENTRAL MARYLAND

CITY           SKY/WX    TMP DP  RH WIND       PRES   REMARKS
FREDERICK*     DRIZZLE   54  54 100 SE5       29.76F
HAGERSTOWN APT CLOUDY    56  53  90 NE5       29.72F
WESTMINSTER*   DRIZZLE   52  48  87 SE8       29.74F

$$

MDZ501>502-041100-
WESTERN MARYLAND

CITY           SKY/WX    TMP DP  RH WIND       PRES   REMARKS
OAKLAND*       CLOUDY    43  43 100 S3        29.74S FOG
CUMBERLAND*    PTCLDY    48  48 100 N3        29.77F

$$

VAZ025>031-041100-
SHENANDOAH VALLEY

CITY           SKY/WX    TMP DP  RH WIND       PRES   REMARKS
WINCHESTER*    CLOUDY    50  50 100 SE3       29.72F FOG
FRONT ROYAL*   CLOUDY    52  52 100 CALM      29.71F
LURAY*         FOG       54  54 100 CALM      29.72F VSB 1/4
NEW MARKET*    CLOUDY    51  51 100 CALM      29.72F
STAUNTON*      MOCLDY    52  52  99 CALM      29.75F
WAYNESBORO*    CLOUDY    53  52  96 N8        29.73F

$$

WVZ021-048>050-054>055-041100-
EASTERN WEST VIRGINIA PANHANDLE

CITY           SKY/WX    TMP DP  RH WIND       PRES   REMARKS
MARTINSBURG    FOG       54  54 100 CALM      29.71F VSB 1/4
PETERSBURG*    FOG       50  49  99 CALM      29.74F VSB 3/4

$$

VAZ036>039-050-041100-
CENTRAL FOOTHILLS

CITY           SKY/WX    TMP DP  RH WIND       PRES   REMARKS
CHARLOTTESVILL CLOUDY    56  54  93 VRB3      29.71F FOG
CULPEPER*      CLOUDY    55  55 100 CALM      29.73F FOG
ORANGE*        CLOUDY    55  55 100 CALM      29.73F FOG
GORDONSVILLE*  CLOUDY    56  56 100 NE5       29.71F FOG
WARRENTON*     CLOUDY    57  52  85 E3        29.72F HAZE

$$

VAZ055>057-041100-
NORTH AND CENTRAL PIEDMONT

CITY           SKY/WX    TMP DP  RH WIND       PRES   REMARKS
FREDERICKSBRG* CLOUDY    57  57 100 NE5       29.71F
STAFFORD*      CLOUDY    56  54  94 N3        29.76F FOG

$$

NCZ024-NYZ072-PAZ021-071-VAZ022-071-041100-
OTHER REGIONAL OBSERVATIONS

CITY           SKY/WX    TMP DP  RH WIND       PRES   REMARKS
NEW YORK CITY  CLOUDY    50  44  80 NE9       29.82S
PHILADELPHIA   CLOUDY    51  47  86 NE8       29.77F
PITTSBURGH     MOCLDY    51  42  71 CALM      29.71F
ROANOKE        CLOUDY    53  48  83 CALM      29.76S
RICHMOND       CLOUDY    58  57  97 N8        29.70S FOG
RALEIGH        PTCLDY    58  55  90 CALM      29.70S

$$

ANZ530>537-041100-
MARINE OBSERVATIONS

STATION/POSITION TIME  TEMP    WIND        PRES
                       AIR SEA DIR/SP/G
                 (UTC) (F)     (DEG/KT/KT) (MB)
THOMAS PT LIGHT  1000   53 58   70/ 10/ 11 1008.1F
BALT KEY BRIDGE  0900   53      70/  7/  8 1007.2F
COVE POINT       0900   52      60/  9/ 11 1007.0F
LEWISETTA        0900   55 63   60/  7/ 10 1005.9F
SOLOMONS ISLAND  0900   53 61   30/  5/  7   N/A
PINEY POINT      0900           70/  6/  9   N/A

$$





USA.gov is the U.S. government's official web portal to all federal, state and local government web resources and services.